sat.trackr.live / text

‹ back to catalog

ONEWEB-0149

NORAD 48058 · 2021-025S

PAYLOAD ACTIVE UNKNOWN

§ Identity

Operator
Country
UK
Launch date
2021-03-25
Launch site
VOSTO
Launch vehicle
Mass (kg)
RCS (m²)

Purposes: comms

External: N2YO · Heavens-Above · Gunter

§ Orbital elements

Epoch: 2026-09-13T01:37:31.626624Z

Period
109.63 min
Inclination
87.8930°
Eccentricity
0.0001915
Mean motion
13.13468763 rev/d
Perigee alt
1,208.3 km
Apogee alt
1,211.2 km
Semi-major
7,587.9 km
B*
-7.0403e-5
RAAN
302.7436°
Arg perigee
101.8246°
Mean anomaly
258.3098°
Rev number
26,502

§ Raw data

ONEWEB-01491 48058U 21025S   26256.06772716 -.00000013  00000+0 -70403-4 0  99952 48058  87.8930 302.7436 0001915 101.8246 258.3098 13.13468763265027

JSON: /api/v1/satellites/48058 · /tle

For live sub-satellite position, see the globe view (requires WebGL).

§ Visibility from observer

Set your observer location to see the next 7 days of passes ≥ 10°. The values pass through the URL so the page stays shareable.

No JS? Fill the form by hand. The geolocation button needs JavaScript.